User: anonymous   Login
Location: Unspecified
(0.0000°N, 0.0000°E)
Time: 07:37:36
(UTC+00:00)
Language:

Zeya - Orbit

View from above orbital plane
View from above orbital plane
View from above satellite
View from above satellite

Ground track
Ground track

The orbit data is extracted from the following two-line orbital elements,

1 24744U 97010A   99298.01559523 +.18186949 +26149-5 +42558-3 0  9995
2 24744 097.1873 210.1564 0006828 227.8300 267.4377 16.46029259148792
Epoch (UTC): 25 October 1999 00:22:27
Eccentricity: 0.0006828
inclination: 97.1873°
perigee height: 145 km
apogee height: 154 km
right ascension of ascending node: 210.1564°
argument of perigee: 227.8300°
revolutions per day: 16.46029259
mean anomaly at epoch: 267.4377°
orbit number at epoch: 14879

The dashed part of the orbit path shows where the satellite is in the earth's shadow,  

DLR